DMSP 5D-2 F13 DEB, 40465

Orbit data source: Space-Track

DMSP 5D-2 F13 DEB, 40465 is space debris in SSO originally from a launch on Fri, 24 Mar 1995 UTC launched from the Air Force Western Test Range (AFWTR). Debris objects in space refer to the collection of defunct objects orbiting the Earth. Examples of debris include non-operational satellites, rocket bodies, and fragments generated from explosions, collisions, or faulty payload assembly.

Loading next visibility...
Identifier
40465, 1995-015BH
Orbit
SSO
Country
Flag of USUS
Related business
Manufacturer
Unknown
Mission
Spacecraft
Bus & Motor
Unknown
Mass
Unknown
Launch date (UTC)
1995-03-24 (31 years ago)
Launch vehicle
Unknown
Launch site
Air Force Western Test Range (AFWTR)
Object type
Payload
Rocket body
Debris
Shape & HBR
Unknown shape, 0.1 m
Radar Cross Section
Small (<0.1 m²)

Expand to show TLE details & history
Last TLE update: 20 hours ago

TLE from 20 hours ago
0 DMSP 5D-2 F13 DEB
1 40465U 95015BH  26236.30641343  .00002458  00000-0  10429-2 0  9999
2 40465  98.9616 265.9266 0037427 234.3028 125.4666 14.25950052589994
Epoch: 2026-08-24T07:21Z
TLE epoch observation values (Epoch: 2026-08-24T07:21:14.120Z)
Latitude
-0°
Longitude
-176.97224°
Altitude
823.884 km
Speed
7.433 km/s
True Right ascension
17h 43m 42s
True Declination
0° 00' 00"
Sunlit
Object was in daylight at epoch
Visualization orbit readout
Latitude
Unknown
Longitude
Unknown
Altitude
Unknown
Speed
Unknown
Apparent Right ascension
Unknown
Apparent Declination
Unknown
Sunlit
N/A
Visualization observer readout
Local Sidereal Time
18:19:40
Azimuth
Unknown
Elevation
Unknown
Doppler factor
Unknown
Orbital elements
Apogee altitude
829.338 km
Perigee altitude
775.588 km
Semi-major axis
7,180.6 km
Eccentricity
0.00374
Inclination
98.9616°
RAAN
265.9266°
Arg. of periapsis
234.3028°
True anomaly
125.81496°
Mean anomaly
125.4666°
Eccentric anomaly
125.64087°
Mean motion
3.56699 °/min
Orbital period
100.93 mins
BSTAR
0.0010429
Loading maneuver chart data...
Computing Atmospheric mass density...

Documentation

Showing up to 5 results
|